sat.trackr.live / text

‹ back to catalog

STARLINK-3253

NORAD 51136 · 2022-005AJ

PAYLOAD ACTIVE UNKNOWN

§ Identity

Operator
Country
US
Launch date
2022-01-19
Launch site
AFETR
Launch vehicle
Mass (kg)
RCS (m²)

Purposes: comms

External: N2YO · Heavens-Above · Gunter

§ Orbital elements

Epoch: 2026-09-20T02:26:12.192000Z

Period
93.85 min
Inclination
53.1589°
Eccentricity
0.0001223
Mean motion
15.34379558 rev/d
Perigee alt
461.9 km
Apogee alt
463.6 km
Semi-major
6,840.9 km
B*
-1.3687e-6
RAAN
131.2423°
Arg perigee
81.5949°
Mean anomaly
278.5193°
Rev number
25,828

§ Raw data

STARLINK-32531 51136U 22005AJ  26263.10153000 -.00000422  00000+0 -13687-5 0  99932 51136  53.1589 131.2423 0001223  81.5949 278.5193 15.34379558258289

JSON: /api/v1/satellites/51136 · /tle

For live sub-satellite position, see the globe view (requires WebGL).

§ Visibility from observer

Set your observer location to see the next 7 days of passes ≥ 10°. The values pass through the URL so the page stays shareable.

No JS? Fill the form by hand. The geolocation button needs JavaScript.